Location: Bangkok
(13.7500°N, 100.5170°E)
Time: 13:14:55
(UTC+07:00)

HST - Visible Passes

Search period start: 31 October 2014 00:00
Search period end: 10 November 2014 00:00
Orbit: 546 x 550 km, 28.5° (Epoch: 30 October)

Date Brightness Start Highest point End Pass type
(mag) Time Alt. Az. Time Alt. Az. Time Alt. Az.
31 Oct 3.3 18:21:29 10° N 18:21:59 10° N 18:22:29 10° N visible
01 Nov 3.2 18:14:09 10° N 18:14:54 10° N 18:15:39 10° NNE visible
02 Nov 3.5 19:46:39 10° NW 19:47:03 12° NNW 19:47:03 12° NNW visible
03 Nov 3.1 19:39:05 10° NW 19:40:19 17° NNW 19:40:19 17° NNW visible
04 Nov 2.5 19:31:34 10° NW 19:33:40 25° NNW 19:33:40 25° NNW visible
05 Nov 1.6 19:24:04 10° NW 19:27:07 40° NNW 19:27:07 40° NNW visible
06 Nov 0.7 19:16:38 10° WNW 19:20:42 74° N 19:20:42 74° N visible
07 Nov 0.8 19:09:16 10° WNW 19:13:26 77° SSW 19:14:25 50° SE visible
08 Nov 1.5 19:01:58 10° WNW 19:06:02 51° SSW 19:08:17 24° SE visible
09 Nov 2.2 18:54:48 10° W 18:58:37 35° SSW 19:02:16 11° SE visible
